Regional Weather Roundup
Issued by NWS

Home | Current Version | Previous Version | Text Only | Print | Product List | Glossary On
Versions: 1 2 3 4 5 6 7 8 9 10 11 12 13 14 15 16 17 18 19 20 21 22 23 24 25 26 27 28 29 30 31 32 33 34 35 36 37 38 39 40 41 42 43 44 45 46 47 48 49 50
000
ASUS45 KSLC 290210
RWRUT

UTAH REGIONAL WEATHER ROUNDUP
NATIONAL WEATHER SERVICE SALT LAKE CITY UT
700 PM MST FRI NOV 28 2014

UTZ001>011-023>025-290300-

NORTHERN UTAH

CITY           SKY/WX    TMP DP  RH WIND       PRES   REMARKS
BRIGHAM CITY   MOCLDY    54  22  29 NW5       29.80S
HILL AFB       PTCLDY    54  18  24 S15       29.81F
LOGAN          CLEAR     48  29  47 NE3       29.79F
OGDEN          PTCLDY    56  18  22 S16       29.79F
PROVO AIRPORT  PTCLDY    43  27  52 CALM      29.87F
SALT LAKE CITY PTCLDY    56  15  20 S13       29.80F
VERNAL         CLEAR     34  23  64 W7        29.96F WCI  28
WENDOVER       CLEAR     48  18  29 NE10      29.78S
HEBER CITY     CLEAR     37  19  48 E8        29.90F WCI  31
WEST JORDAN    CLEAR     55  27  33 S17       29.84F

$$

UTZ012>022-026-027-290300-

SOUTHERN/CENTRAL UTAH

CITY           SKY/WX    TMP DP  RH WIND       PRES   REMARKS
BLANDING       PTCLDY    37  18  47 NE5       30.13F WCI  33
BRYCE CANYON   PTCLDY    32   8  36 W5        30.10S WCI  27
CEDAR CITY     CLEAR     44  11  26 SW9       30.00S
DELTA          PTCLDY    54  13  19 S20       29.89F
MILFORD        PTCLDY    51  13  21 S20       29.96F
MOAB/CYNLANDS  CLEAR     37  19  48 CALM      29.98F
PRICE          PTCLDY    35  22  58 N10       30.02S WCI  27
ST GEORGE      CLEAR     52  16  24 S3        29.96S
KANAB          CLEAR     41  12  30 NE3       30.04S

$$

REGIONAL REPORTS     COLORADO/ARIZONA

CITY           SKY/WX    TMP DP  RH WIND       PRES   REMARKS
CRAIG, CO      CLEAR     45  17  32 W12G18    29.95F
GRAND JUNCTION MOCLDY    34  23  64 E7        30.00F WCI  28
RIFLE          PTCLDY    35  26  69 S3        30.02F
MONTROSE       MOCLDY    37  22  54 SE5       30.05S WCI  33
CORTEZ         CLEAR     33  19  56 E9        30.08F WCI  25
PAGE, AZ       CLEAR     47  20  34 W3        29.99F
GRAND CANYON   CLEAR     34   6  31 SW5       30.11F WCI  30
KINGMAN        CLEAR     53  17  24 S12       29.98S
FLAGSTAFF      CLEAR     42  14  32 SW8       30.15F

$$

REGIONAL REPORTS    NEVADA/IDAHO/WYOMING

CITY           SKY/WX    TMP DP  RH WIND       PRES   REMARKS
LAS VEGAS, NV  CLEAR     60  23  24 S9        29.87S
ELY            CLEAR     43  12  28 S15       29.95S
ELKO           PTCLDY    43  16  33 CALM      29.82F
POCATELLO, ID  CLEAR     52  17  25 SW15G22   29.74S
BURLEY         CLOUDY    51  22  31 SW3       29.71F
EVANSTON, WY   PTCLDY    43  15  32 SW16      29.89F
ROCK SPRINGS   CLEAR     38  11  32 S10       29.88F WCI  31

$$


USA.gov is the U.S. government's official web portal to all federal, state and local government web resources and services.